Location: Riverton
(43.0250°N, 108.3790°W)
Time: 17:52:53
(UTC-06:00)

JAS-2 - Visible Passes

Search period start: 28 April 2016 00:00
Search period end: 08 May 2016 00:00
Orbit: 800 x 1321 km, 98.6° (Epoch: 27 April)

Date Brightness Start Highest point End Pass type
(mag) Time Alt. Az. Time Alt. Az. Time Alt. Az.
28 Apr 11.8 00:46:48 10° NE 00:51:37 17° E 00:52:32 17° E visible
28 Apr 10.0 02:29:48 10° NNE 02:37:30 84° ESE 02:39:02 62° S visible
28 Apr 11.4 04:16:01 10° N 04:21:41 24° WNW 04:25:31 16° W visible
29 Apr 10.8 01:35:14 10° NNE 01:42:21 39° E 01:43:26 37° ESE visible
29 Apr 10.5 03:20:06 10° N 03:27:23 50° WNW 03:29:56 38° WSW visible
29 Apr 12.0 05:08:42 10° NNW 05:10:44 11° NW 05:12:47 10° WNW visible
30 Apr 11.8 00:42:08 10° NE 00:46:41 16° E 00:47:50 16° E visible
30 Apr 10.1 02:24:54 10° NNE 02:32:39 80° ESE 02:34:19 60° S visible
30 Apr 11.3 04:10:59 10° N 04:16:53 25° WNW 04:20:49 17° W visible
01 May 10.9 01:30:24 10° NNE 01:37:28 37° E 01:38:43 35° ESE visible
01 May 10.4 03:15:10 10° N 03:22:34 53° WNW 03:25:13 38° WSW visible
01 May 11.9 05:03:18 10° NNW 05:05:57 12° NW 05:08:38 10° WNW visible
02 May 11.9 00:37:31 10° NE 00:41:44 15° E 00:43:07 15° E visible
02 May 10.1 02:20:01 10° NNE 02:27:49 76° ESE 02:29:36 57° S visible
02 May 11.3 04:05:59 10° N 04:12:06 27° WNW 04:16:06 18° W visible
03 May 11.0 01:25:35 10° NNE 01:32:35 35° E 01:33:59 33° ESE visible
03 May 10.4 03:10:14 10° N 03:17:46 55° WNW 03:20:29 39° WSW visible
03 May 11.9 04:58:02 10° NNW 05:01:11 13° NW 05:04:21 10° WNW visible
04 May 11.9 00:32:58 10° NE 00:36:48 14° E 00:38:22 13° E visible
04 May 10.1 02:15:08 10° NNE 02:22:58 72° ESE 02:24:52 54° SSE visible
04 May 11.2 04:01:00 10° N 04:07:18 28° WNW 04:11:21 18° W visible
05 May 11.1 01:20:47 10° NNE 01:27:41 33° E 01:29:14 30° ESE visible
05 May 10.3 03:05:19 10° N 03:12:57 59° WNW 03:15:44 40° SW visible
05 May 11.9 04:52:51 10° NNW 04:56:24 14° NW 04:59:58 10° WNW visible
06 May 12.0 00:28:30 10° ENE 00:31:50 13° E 00:33:37 12° E visible
06 May 10.2 02:10:16 10° NNE 02:18:08 69° ESE 02:20:06 52° SSE visible
06 May 11.2 03:56:03 10° N 04:02:30 30° WNW 04:06:36 19° WSW visible
07 May 11.1 01:16:01 10° NNE 01:22:48 31° E 01:24:28 28° ESE visible
07 May 10.3 03:00:25 10° N 03:08:08 62° WNW 03:10:58 40° SW visible
07 May 11.9 04:47:44 10° NNW 04:51:37 15° NW 04:55:32 10° W visible
